Location: Bush Observatory
(40.2653°N, 94.3194°W)
Time: 02:24:46
(UTC-05:00)

Daily predictions for brighter satellites

Satellite Brightness Start Highest point End
(mag) Time Altitude Azimuth Time Altitude Azimuth Time Altitude Azimuth
Okean O Rocket 4.5 04:16:52 10° ENE 04:18:42 14° E 04:18:42 14° E
SJ 16-02 3.4 04:52:07 24° NE 04:52:07 24° NE 04:54:08 10° NNE
USA 215 3.9 04:44:53 10° NE 04:50:01 42° N 04:50:01 42° N
Cosmos 2227 Rocket 4.0 04:52:27 10° N 04:57:19 28° NE 05:02:10 10° ESE
Milstar 3 4.0 05:01:35 26° S 05:01:35 26° S 05:06:19 10° SE
ADEOS II 3.2 04:56:52 10° NNE 04:59:49 35° NNE 04:59:49 35° NNE
MOS 1-B 4.3 05:00:33 10° NNE 05:05:49 75° NNE 05:05:49 75° NNE
Cosmos 1048 Rocket 4.3 05:06:32 63° NE 05:06:44 64° ENE 05:11:57 10° SSE
NOSS 3-1 (C) 3.8 05:09:14 51° NNW 05:09:14 51° NNW 05:14:33 10° NNE
Cosmos 962 Rocket 4.3 05:09:54 10° N 05:16:02 83° W 05:22:09 10° S
NOSS 3-1 (A) 3.3 05:16:39 70° NW 05:16:39 70° NW 05:22:57 10° NNE
Meteor 1-24 Rocket 4.4 05:10:49 10° S 05:16:39 56° E 05:22:23 10° NNE
USA 267 3.1 05:14:45 10° SE 05:21:18 87° SW 05:23:32 46° NW
Meteor 2-21 Rocket 4.5 05:21:00 10° N 05:27:07 77° E 05:33:12 10° SSE
Cosmos 2219 3.3 05:31:24 55° SW 05:31:24 55° SW 05:36:10 10° S
Meteor 1-31 Rocket 3.8 05:29:38 10° NNE 05:33:18 44° E 05:36:57 10° S
Cosmos 2297 Rocket 3.2 05:29:06 10° NNW 05:34:31 45° ENE 05:39:54 10° SE
Cosmos 1174 4.4 05:33:46 43° NW 05:35:44 79° WSW 05:40:38 10° SSE
Cosmos 1295 Rocket 4.4 05:32:46 10° NNW 05:39:01 63° W 05:45:15 10° S
Cosmos 2181 Rocket 3.9 05:38:36 22° SSW 05:42:39 61° W 05:48:45 10° N
Cosmos 1959 Rocket 4.5 05:38:22 10° N 05:44:42 85° E 05:50:53 10° S
Cosmos 2341 Rocket 4.1 05:38:37 10° NNW 05:44:46 51° W 05:50:52 10° SSW
Cosmos 372 Rocket 4.1 05:45:55 49° WNW 05:45:57 49° WNW 05:51:03 10° N
NOSS 2-3 (C) 4.4 05:42:57 18° S 05:46:14 55° ESE 05:51:22 10° NE
Cosmos 2082 4.4 05:40:56 10° NNW 05:46:30 55° ENE 05:51:59 10° SE
Meteor PRIRODA 3.6 05:44:31 10° NNE 05:48:17 85° ESE 05:49:44 36° S
Cosmos 2084 Rocket 3.2 05:50:13 56° SW 05:51:04 85° NW 05:55:10 10° NE
Landsat 4 4.0 05:48:42 10° SSE 05:52:26 65° ENE 05:56:10 10° N
Okean O Rocket 1.8 05:51:44 10° N 05:55:59 48° WNW 05:56:09 48° W
CZ-4B DEB 4.2 05:52:10 10° N 05:57:36 62° WNW 06:03:02 10° SSW
Cosmos 2221 3.9 05:53:49 10° N 05:57:59 40° ENE 06:02:06 10° SSE
USA 81 4.0 05:54:53 10° SSW 06:00:02 56° W 06:05:15 10° N
SL-08 R/B 4.4 05:54:24 10° N 06:00:38 86° W 06:06:56 10° S
Meteor 1-28 Rocket 3.7 05:57:38 10° SSE 06:01:23 62° ENE 06:05:10 10° N
PAYLOAD B 4.3 05:57:34 10° N 06:02:54 53° WNW 06:08:15 10° SW
CZ-4B R/B 3.2 05:58:28 10° N 06:03:53 60° WNW 06:09:21 10° SSW
Cosmos 1269 Rocket 4.3 06:02:48 23° NW 06:05:42 43° WSW 06:10:42 10° S
Lacrosse 5 4.2 06:05:10 10° NNW 06:07:26 13° N 06:09:42 10° NE
COSMO-SKYMED 1 3.8 06:04:08 10° SE 06:08:15 44° ENE 06:12:23 10° N
Cosmos 2369 3.6 06:05:08 10° SSW 06:10:46 82° WNW 06:16:28 10° NNE
DELTA 2 R/B(2) 4.4 06:12:14 36° SSE 06:12:14 36° SSE 06:14:29 10° ESE
Cosmos 494 Rocket 3.9 06:10:13 10° NNW 06:15:26 89° WSW 06:20:39 10° SSE
Okean-O 3.0 06:14:29 10° NNE 06:18:55 69° ESE 06:23:19 10° S
Meteor 2-1 Rocket 4.3 06:13:58 10° NNW 06:19:46 62° W 06:25:27 10° S
Cosmos 1842 Rocket 3.7 06:16:17 10° NNW 06:20:27 46° W 06:24:35 10° SSW
Cosmos 2366 rocket 4.1 06:17:20 10° NNW 06:23:17 53° W 06:29:16 10° SSW
Cosmos 1726 3.1 06:22:11 10° N 06:25:46 48° E 06:29:19 10° SSE
Cosmos 1674 2.5 06:23:30 10° SSW 06:27:11 62° W 06:30:54 10° N
Meteor 2-8 Rocket 4.4 06:22:39 10° SSW 06:28:44 64° W 06:34:48 10° N
NOSS 2-3 (D) 3.8 06:24:12 10° SW 06:28:45 67° NW 06:34:08 10° NNE
SJ 16-02 2.9 06:29:10 17° NW 06:29:10 17° NW 06:31:44 10° NNW
Cosmos 2278 3.8 06:27:44 10° SW 06:33:15 56° WNW 06:38:50 10° NNE
Cosmos 1076 Rocket 3.6 06:30:49 10° S 06:35:09 79° E 06:39:30 10° N
NOAA 6 4.0 06:34:51 10° N 06:40:02 76° WNW 06:45:09 10° SSW
ADEOS II 3.9 06:39:24 10° NW 06:40:45 11° NW 06:40:45 11° NW
Cosmos 2227 Rocket 2.6 06:36:11 10° NW 06:41:30 42° WSW 06:46:47 10° S
IDEFIX/ARIANE 42P 2.9 06:39:19 10° NNE 06:44:33 72° ESE 06:49:44 10° S
USA 116 4.4 06:41:44 10° SSW 06:45:08 33° W 06:48:59 10° NNW
Cosmos 1934 Rocket 4.5 06:47:55 10° N 06:54:08 66° E 07:00:12 10° SSE
ATLAS 2AS CENTAUR R/B 3.1 06:47:30 10° SW 06:55:12 83° NW 07:03:24 10° NNE
SKYMED 2 3.7 06:52:03 10° S 06:56:17 52° W 07:00:32 10° NNW
Okean 3 Rocket 3.8 06:54:08 10° SSW 06:58:26 47° W 07:02:43 10° N
Meteor 2-10 4.3 06:52:56 10° N 06:58:30 89° W 07:04:13 10° S
Cosmos 1821 Rocket 4.1 06:52:22 10° N 06:58:48 85° W 07:05:12 10° S
Cosmos 1766 Rocket 3.6 06:54:32 10° S 06:58:53 87° E 07:03:17 10° N
CZ-4 R/B 4.4 06:57:42 10° NE 07:00:38 20° E 07:03:33 10° SE
Cosmos 1656 4.2 06:55:39 10° SW 07:00:58 39° WNW 07:06:18 10° N
Cosmos 2251 Rocket 3.8 06:55:51 10° NNW 07:01:01 48° WSW 07:06:08 10° S
Cosmos 1818 3.6 06:55:59 10° SW 07:01:20 64° NW 07:06:46 10° NNE
Cosmos 2360 4.4 06:58:32 10° SSW 07:04:13 79° ESE 07:09:56 10° NNE
SL-14 R/B 3.2 07:00:50 10° SSW 07:04:42 75° W 07:08:35 10° N
USA 267 4.5 07:00:02 10° S 07:04:50 22° WSW 07:09:39 10° WNW
GP-B 3.1 07:00:40 10° S 07:05:06 87° W 07:09:34 10° N
Cosmos 2344 3.7 07:01:16 10° SW 07:08:53 73° NW 07:17:22 10° NNE
SJ-12 4.3 07:05:06 10° NNE 07:09:17 73° ESE 07:13:24 10° S
Cosmos 1484 Rocket 4.5 07:10:16 10° NNE 07:13:55 40° E 07:17:36 10° S
Ariane Rocket 4.1 07:12:06 10° NNE 07:17:05 52° E 07:22:00 10° S
